STARLINK-34401

Last updated on Fri Aug 08 2025 00:02:05 GMT+0000 (Coordinated Universal Time)

1 64757U 25147C 25218.91668981 .00009431 00000+0 24548-3 0 9996 2 64757 53.1604 163.3742 0001526 94.8176 9.2248 15.39617065 5828
UTC large
Height (km)
Speed (km/s)
/
Latitude / Longitude
Inclination (degrees)
Orbital Period (minutes)
Azimuth
Elevation
Range (km)
Doppler Factor

Next 0 passes for location: London (51.5072 / 0.1276)

Sorry there are no passes over London.